Regional Weather Roundup
Issued by NWS

Home | Current Version | Previous Version | Text Only | Print | Product List | Glossary On
Versions: 1 2 3 4 5 6 7 8 9 10 11 12 13 14 15 16 17 18 19 20 21 22 23 24 25 26 27 28 29 30 31 32 33 34 35 36 37 38 39 40 41 42 43 44 45 46 47 48 49 50
000
ASUS43 KBIS 041010
RWRND

NORTH DAKOTA REGIONAL WEATHER ROUNDUP
NATIONAL WEATHER SERVICE BISMARCK ND
500 AM CDT WED MAY 04 2016

NOTE: "FAIR" INDICATES FEW OR NO CLOUDS BELOW 12,000 FEET WITH NO
SIGNIFICANT WEATHER AND/OR OBSTRUCTIONS TO VISIBILITY.


NDZ001>003-009>011-017-041100-
NORTHWEST NORTH DAKOTA

CITY           SKY/WX    TMP DP  RH WIND       PRES   REMARKS
WILLISTON      CLEAR     47  40  76 SW3       30.07S
MINOT          PTCLDY    45  30  55 SE5       30.08S
MINOT AFB      CLEAR     41  31  66 S5        30.07S
$$

NDZ018>021-031>035-040>046-041100-
SOUTHWEST NORTH DAKOTA

CITY           SKY/WX    TMP DP  RH WIND       PRES   REMARKS
BISMARCK       CLEAR     38  32  79 CALM      30.11S
DICKINSON      CLEAR     41  33  73 S8        30.09S
GARRISON         N/A     42  32  67 CALM      30.09S
HETTINGER ARPT CLEAR     36  32  85 W3        30.13S
$$

NDZ004>008-012>016-024-026-027-054-041100-
NORTHEAST NORTH DAKOTA

CITY           SKY/WX    TMP DP  RH WIND       PRES   REMARKS
GRAND FORKS    CLEAR     34  29  82 NW7       30.05S
GRND FRKS AFB  CLEAR     36  30  80 N6        30.06R
DEVILS LAKE    CLEAR     35  31  85 NW3       30.09R
$$

NDZ022-023-025-028>030-036>039-047>053-041100-
SOUTHEAST NORTH DAKOTA

CITY           SKY/WX    TMP DP  RH WIND       PRES   REMARKS
FARGO          CLEAR     38  28  67 NW8       30.04R
JAMESTOWN      CLEAR     33  29  85 NW7       30.08R
$$





USA.gov is the U.S. government's official web portal to all federal, state and local government web resources and services.